K0SNA Weather Reports


time (UTC)temp
C
wind
direction
speed
KPH
gust
KPH
rain 1hr
cm
rain 24hr
cm
rain mn
cm
humidity
%
barometer
mb
20260504080331 13 219 3.2 4.8 0.00 0.00 0.00 45 998.9
20260504070258 12 208 3.2 8.0 0.00 0.00 0.00 47 999.7
20260504060219 10 203 0.0 0.0 0.00 0.00 0.00 55 1001.0
20260504050646 11 204 0.0 0.0 0.00 0.00 0.00 52 1002.0
20260504050143 11 205 0.0 0.0 0.00 0.00 0.00 53 1002.1
20260504045641 11 204 0.0 0.0 0.00 0.00 0.00 55 1002.2
20260504045141 11 204 0.0 0.0 0.00 0.00 0.00 51 1002.2
20260504044639 11 204 0.0 1.6 0.00 0.00 0.00 53 1002.4
20260504044135 11 204 1.6 1.6 0.00 0.00 0.00 52 1002.3
20260504043632 11 204 0.0 0.0 0.00 0.00 0.00 53 1002.4
20260504043130 11 204 0.0 0.0 0.00 0.00 0.00 55 1002.7
20260504042627 11 204 0.0 0.0 0.00 0.00 0.00 55 1002.7
20260504042123 11 204 0.0 0.0 0.00 0.00 0.00 54 1002.9
20260504041619 11 204 0.0 0.0 0.00 0.00 0.00 54 1002.9
20260504041116 11 204 0.0 0.0 0.00 0.00 0.00 52 1002.9
20260504040613 11 204 0.0 0.0 0.00 0.00 0.00 52 1003.1
20260504040109 11 204 0.0 0.0 0.00 0.00 0.00 54 1003.3
20260504035606 11 204 0.0 0.0 0.00 0.00 0.00 52 1003.3
20260504035103 11 204 0.0 0.0 0.00 0.00 0.00 53 1003.4
20260504034601 11 204 0.0 0.0 0.00 0.00 0.00 52 1003.5
20260504034057 12 204 0.0 0.0 0.00 0.00 0.00 51 1003.7
20260504033555 12 204 0.0 0.0 0.00 0.00 0.00 51 1003.7
20260504033052 12 204 0.0 0.0 0.00 0.00 0.00 50 1003.9
20260504032549 12 204 0.0 0.0 0.00 0.00 0.00 49 1003.7
20260504032046 12 204 0.0 0.0 0.00 0.00 0.00 48 1003.9
20260504031543 12 203 0.0 0.0 0.00 0.00 0.00 48 1004.1
20260504031039 12 203 0.0 0.0 0.00 0.00 0.00 47 1003.9
20260504030537 12 203 0.0 0.0 0.00 0.00 0.00 47 1003.8
20260504030032 13 203 0.0 0.0 0.00 0.00 0.00 46 1004.1
20260504025530 13 204 0.0 0.0 0.00 0.00 0.00 45 1003.9
20260504025026 13 204 0.0 0.0 0.00 0.00 0.00 43 1004.0
20260504024524 13 203 0.0 0.0 0.00 0.00 0.00 43 1003.9
20260504024020 13 203 0.0 0.0 0.00 0.00 0.00 42 1003.9
20260504023517 14 203 0.0 0.0 0.00 0.00 0.00 42 1004.0
20260504023013 14 203 0.0 0.0 0.00 0.00 0.00 42 1004.2
20260504022509 15 203 0.0 0.0 0.00 0.00 0.00 40 1004.1
20260504022006 15 203 0.0 0.0 0.00 0.00 0.00 40 1004.2
20260504021504 15 203 0.0 0.0 0.00 0.00 0.00 40 1004.1
20260504021000 16 203 0.0 0.0 0.00 0.00 0.00 37 1004.4
20260504020456 16 203 0.0 0.0 0.00 0.00 0.00 35 1004.2
20260504015953 17 203 0.0 0.0 0.00 0.00 0.00 33 1004.2
20260504015449 17 202 0.0 0.0 0.00 0.00 0.00 32 1004.0
20260504014945 17 203 0.0 3.2 0.00 0.00 0.00 32 1004.1
20260504014442 17 206 0.0 1.6 0.00 0.00 0.00 31 1004.1
20260504013938 17 206 1.6 3.2 0.00 0.00 0.00 31 1004.3
20260504013437 18 201 0.0 0.0 0.00 0.00 0.00 30 1004.3
20260504012933 18 203 0.0 3.2 0.00 0.00 0.00 30 1004.3
20260504012431 18 215 1.6 3.2 0.00 0.00 0.00 29 1004.4
20260504011929 18 226 3.2 4.8 0.00 0.00 0.00 29 1004.4
20260504011425 18 205 3.2 11.3 0.00 0.00 0.00 28 1004.5
20260504010921 19 217 4.8 9.7 0.00 0.00 0.00 29 1004.4
20260504010417 19 230 1.6 3.2 0.00 0.00 0.00 29 1004.4
20260504005913 19 211 3.2 3.2 0.00 0.00 0.00 28 1004.5
20260504005410 19 214 3.2 4.8 0.00 0.00 0.00 28 1004.6
20260504004908 19 213 4.8 4.8 0.00 0.00 0.00 28 1004.4
20260504004405 20 223 3.2 3.2 0.00 0.00 0.00 28 1004.7
20260504003902 20 257 4.8 8.0 0.00 0.00 0.00 28 1004.6
20260504003358 20 201 1.6 8.0 0.00 0.00 0.00 27 1004.3
20260504002855 20 216 1.6 3.2 0.00 0.00 0.00 27 1004.4
20260504002352 20 238 4.8 11.3 0.00 0.00 0.00 26 1004.6
20260504001850 20 209 1.6 3.2 0.00 0.00 0.00 28 1004.6
20260504001347 20 238 4.8 4.8 0.00 0.00 0.00 26 1004.6
20260504000843 20 235 8.0 11.3 0.00 0.00 0.00 26 1004.5
20260504000341 20 285 3.2 4.8 0.00 0.00 0.00 27 1004.6
20260503235838 20 266 6.4 9.7 0.00 0.00 0.00 27 1004.6
20260503235336 20 193 1.6 11.3 0.00 0.00 0.00 27 1004.5
20260503234833 20 262 9.7 12.9 0.00 0.00 0.00 26 1004.6
20260503234330 20 257 3.2 8.0 0.00 0.00 0.00 27 1004.5
20260503233828 21 226 3.2 3.2 0.00 0.00 0.00 27 1004.6
20260503233324 21 265 4.8 8.0 0.00 0.00 0.00 27 1004.7
20260503232820 20 252 1.6 3.2 0.00 0.00 0.00 26 1004.6
20260503232318 20 237 1.6 3.2 0.00 0.00 0.00 26 1004.8
20260503231816 20 272 8.0 11.3 0.00 0.00 0.00 25 1005.1
20260503231313 20 326 8.0 9.7 0.00 0.00 0.00 26 1005.0
20260503230808 20 283 4.8 9.7 0.00 0.00 0.00 26 1005.0
20260503230306 21 219 0.0 8.0 0.00 0.00 0.00 26 1005.1
20260503225803 20 291 4.8 11.3 0.00 0.00 0.00 26 1005.1
20260503225258 21 202 1.6 14.5 0.00 0.00 0.00 25 1005.1
20260503224755 20 317 4.8 4.8 0.00 0.00 0.00 26 1005.1
20260503224253 21 5 6.4 11.3 0.00 0.00 0.00 26 1005.2
20260503223750 21 250 4.8 8.0 0.00 0.00 0.00 25 1005.1
20260503223248 21 266 4.8 11.3 0.00 0.00 0.00 25 1005.2
20260503222744 21 354 4.8 11.3 0.00 0.00 0.00 25 1005.2
20260503222242 21 260 4.8 12.9 0.00 0.00 0.00 26 1005.2
20260503221740 21 271 4.8 9.7 0.00 0.00 0.00 25 1005.1
20260503221238 21 231 6.4 9.7 0.00 0.00 0.00 24 1005.3
20260503220734 21 281 4.8 8.0 0.00 0.00 0.00 26 1005.4
20260503220231 21 335 4.8 9.7 0.00 0.00 0.00 25 1005.2
20260503215727 21 157 3.2 8.0 0.00 0.00 0.00 26 1005.4
20260503215225 21 206 1.6 14.5 0.00 0.00 0.00 24 1005.7
20260503214723 21 321 6.4 9.7 0.00 0.00 0.00 26 1005.2
20260503214219 21 278 9.7 17.7 0.00 0.00 0.00 26 1005.6
20260503213717 21 288 4.8 8.0 0.00 0.00 0.00 26 1005.6
20260503213214 21 322 8.0 14.5 0.00 0.00 0.00 27 1005.6
20260503212711 21 260 4.8 8.0 0.00 0.00 0.00 27 1005.7
20260503212209 21 319 6.4 16.1 0.00 0.00 0.00 28 1005.6
20260503211706 21 347 8.0 11.3 0.00 0.00 0.00 27 1005.8
20260503211202 21 304 4.8 9.7 0.00 0.00 0.00 27 1005.9
20260503210658 21 307 4.8 11.3 0.00 0.00 0.00 29 1005.8
20260503210155 21 319 8.0 14.5 0.00 0.00 0.00 28 1005.8
20260503205650 21 315 6.4 9.7 0.00 0.00 0.00 28 1005.8
20260503205147 21 227 11.3 16.1 0.00 0.00 0.00 27 1005.9
20260503204643 21 256 3.2 9.7 0.00 0.00 0.00 29 1005.9
20260503204141 21 204 4.8 11.3 0.00 0.00 0.00 28 1005.9
20260503203638 21 320 8.0 12.9 0.00 0.00 0.00 29 1006.2
20260503203136 21 234 3.2 9.7 0.00 0.00 0.00 29 1005.9
20260503202633 21 340 9.7 12.9 0.00 0.00 0.00 29 1006.3
20260503202131 21 339 9.7 11.3 0.00 0.00 0.00 30 1006.0
20260503201629 21 234 6.4 17.7 0.00 0.00 0.00 29 1006.2
20260503201126 21 222 1.6 12.9 0.00 0.00 0.00 29 1006.2
20260503200622 21 200 1.6 9.7 0.00 0.00 0.00 28 1006.4
20260503200119 21 293 8.0 9.7 0.00 0.00 0.00 28 1006.3
20260503195616 21 274 3.2 11.3 0.00 0.00 0.00 27 1006.4
20260503195112 21 265 4.8 4.8 0.00 0.00 0.00 28 1006.6
20260503194610 20 284 4.8 11.3 0.00 0.00 0.00 31 1006.6
20260503194104 21 345 11.3 20.9 0.00 0.00 0.00 28 1006.5
20260503193601 20 327 6.4 11.3 0.00 0.00 0.00 29 1006.7
20260503193056 20 253 6.4 12.9 0.00 0.00 0.00 27 1006.7
20260503192553 20 296 8.0 12.9 0.00 0.00 0.00 27 1006.6
20260503192049 20 64 8.0 11.3 0.00 0.00 0.00 27 1006.7
20260503191546 20 334 11.3 14.5 0.00 0.00 0.00 27 1006.7
20260503191043 21 329 8.0 14.5 0.00 0.00 0.00 28 1006.7
20260503190539 20 203 3.2 11.3 0.00 0.00 0.00 29 1006.6
20260503190036 20 321 6.4 17.7 0.00 0.00 0.00 29 1006.7
20260503185533 20 311 9.7 12.9 0.00 0.00 0.00 30 1006.7
20260503185027 20 359 8.0 11.3 0.00 0.00 0.00 30 1006.7
20260503184523 20 318 4.8 8.0 0.00 0.00 0.00 31 1006.7
20260503184020 20 305 6.4 14.5 0.00 0.00 0.00 31 1006.6
20260503183517 20 221 1.6 11.3 0.00 0.00 0.00 33 1006.6
20260503183014 21 205 3.2 12.9 0.00 0.00 0.00 33 1007.0
20260503182512 21 255 4.8 9.7 0.00 0.00 0.00 35 1006.9
20260503182010 20 196 4.8 11.3 0.00 0.00 0.00 31 1006.8
20260503181507 20 276 8.0 9.7 0.00 0.00 0.00 34 1007.0
20260503181003 20 262 8.0 12.9 0.00 0.00 0.00 34 1007.0
20260503180500 19 344 4.8 14.5 0.00 0.00 0.00 36 1006.9
20260503175957 20 344 8.0 16.1 0.00 0.00 0.00 35 1006.9
20260503175455 20 30 9.7 11.3 0.00 0.00 0.00 34 1006.9
20260503174951 20 293 4.8 9.7 0.00 0.00 0.00 34 1007.1
20260503174449 19 294 9.7 16.1 0.00 0.00 0.00 34 1007.2
20260503173944 19 345 9.7 11.3 0.00 0.00 0.00 35 1007.1
20260503173440 20 340 9.7 12.9 0.00 0.00 0.00 37 1007.2
20260503172937 19 270 8.0 12.9 0.00 0.00 0.00 37 1007.1
20260503172434 19 50 8.0 22.5 0.00 0.00 0.00 37 1007.2
20260503171931 20 356 4.8 12.9 0.00 0.00 0.00 38 1007.1
20260503171428 19 312 8.0 14.5 0.00 0.00 0.00 39 1007.2
20260503170925 20 330 8.0 14.5 0.00 0.00 0.00 39 1007.2
20260503170421 19 336 6.4 11.3 0.00 0.00 0.00 39 1007.2
20260503150814 17 325 8.0 16.1 0.00 0.00 0.00 42 1006.9
20260503150309 17 358 8.0 11.3 0.00 0.00 0.00 43 1006.9
20260503140234 15 302 8.0 9.7 0.00 0.00 0.00 49 1006.6
20260503131204 13 332 8.0 11.3 0.00 0.00 0.00 50 1006.2
20260503130701 13 353 8.0 12.9 0.00 0.00 0.00 50 1006.1
20260503130159 13 191 3.2 3.2 0.00 0.00 0.00 51 1006.1
20260503120124 11 233 3.2 3.2 0.00 0.00 0.00 53 1005.2
20260503110551 11 205 1.6 3.2 0.00 0.00 0.00 52 1004.6
20260503090438 13 255 6.4 11.3 0.00 0.00 0.00 45 1005.6
20260503081405 14 216 4.8 8.0 0.00 0.00 0.00 46 1006.0
20260503080902 14 195 3.2 9.7 0.00 0.00 0.00 45 1005.8